TimeCST,TemperatureF,Dew PointF,Humidity,Sea Level PressureIn,VisibilityMPH,Wind Direction,Wind SpeedMPH,Gust SpeedMPH,PrecipitationIn,Events,Conditions,WindDirDegrees,DateUTC
12:15 AM,42.8,35.6,76,30.15,10.0,Calm,Calm,-,N/A,,Clear,0,2012-11-04 05:15:00
12:35 AM,44.6,37.4,76,30.15,10.0,Calm,Calm,-,N/A,,Clear,0,2012-11-04 05:35:00
12:55 AM,41.0,35.6,81,30.16,9.0,Calm,Calm,-,N/A,,Partly Cloudy,0,2012-11-04 05:55:00
1:15 AM,41.0,37.4,87,30.16,10.0,NNE,3.5,-,N/A,,Partly Cloudy,30,2012-11-04 06:15:00
1:35 AM,39.2,35.6,87,30.16,10.0,North,3.5,-,N/A,,Clear,360,2012-11-04 06:35:00
1:55 AM,41.0,37.4,87,30.16,10.0,North,3.5,-,N/A,,Clear,350,2012-11-04 06:55:00
1:15 AM,42.8,37.4,81,30.16,10.0,Calm,Calm,-,N/A,,Clear,0,2012-11-04 07:15:00
1:35 AM,39.2,33.8,81,30.17,10.0,Calm,Calm,-,N/A,,Clear,0,2012-11-04 07:35:00
1:55 AM,41.0,35.6,81,30.17,10.0,Calm,Calm,-,N/A,,Clear,0,2012-11-04 07:55:00
2:15 AM,41.0,35.6,81,30.17,10.0,Calm,Calm,-,N/A,,Partly Cloudy,0,2012-11-04 08:15:00
2:35 AM,44.6,37.4,76,30.18,10.0,Calm,Calm,-,N/A,,Partly Cloudy,0,2012-11-04 08:35:00
2:55 AM,46.4,37.4,71,30.18,10.0,Calm,Calm,-,N/A,,Partly Cloudy,0,2012-11-04 08:55:00
3:15 AM,44.6,37.4,76,30.17,10.0,NNE,3.5,-,N/A,,Scattered Clouds,30,2012-11-04 09:15:00
3:35 AM,42.8,37.4,81,30.17,10.0,Calm,Calm,-,N/A,,Scattered Clouds,0,2012-11-04 09:35:00
3:55 AM,41.0,37.4,87,30.18,10.0,Calm,Calm,-,N/A,,Partly Cloudy,0,2012-11-04 09:55:00
4:15 AM,44.6,37.4,76,30.18,8.0,Calm,Calm,-,N/A,,Mostly Cloudy,0,2012-11-04 10:15:00
4:35 AM,42.8,37.4,81,30.18,10.0,Calm,Calm,-,N/A,,Mostly Cloudy,0,2012-11-04 10:35:00
4:55 AM,39.2,33.8,81,30.19,10.0,Calm,Calm,-,N/A,,Scattered Clouds,0,2012-11-04 10:55:00
5:15 AM,39.2,35.6,87,30.18,9.0,NNE,3.5,-,N/A,,Scattered Clouds,20,2012-11-04 11:15:00
5:35 AM,41.0,37.4,87,30.18,10.0,Calm,Calm,-,N/A,,Scattered Clouds,0,2012-11-04 11:35:00
5:55 AM,41.0,37.4,87,30.18,9.0,Calm,Calm,-,N/A,,Partly Cloudy,0,2012-11-04 11:55:00
6:35 AM,39.2,37.4,93,30.19,10.0,Calm,Calm,-,N/A,,Clear,0,2012-11-04 12:35:00
6:55 AM,39.2,35.6,87,30.19,4.0,Calm,Calm,-,N/A,,Clear,0,2012-11-04 12:55:00
7:15 AM,39.2,35.6,87,30.19,5.0,Calm,Calm,-,N/A,,Clear,0,2012-11-04 13:15:00
7:35 AM,42.8,39.2,87,30.19,6.0,Calm,Calm,-,N/A,,Clear,0,2012-11-04 13:35:00
7:55 AM,44.6,41.0,87,30.19,7.0,Calm,Calm,-,N/A,,Clear,0,2012-11-04 13:55:00
8:15 AM,50.0,39.2,66,30.19,8.0,SE,6.9,-,N/A,,Clear,130,2012-11-04 14:15:00
8:35 AM,51.8,39.2,62,30.20,10.0,ESE,6.9,-,N/A,,Clear,110,2012-11-04 14:35:00
8:55 AM,53.6,37.4,54,30.20,9.0,East,8.1,-,N/A,,Clear,100,2012-11-04 14:55:00
9:35 AM,57.2,39.2,51,30.21,9.0,ESE,6.9,-,N/A,,Clear,110,2012-11-04 15:35:00
9:55 AM,57.2,39.2,51,30.21,9.0,East,6.9,-,N/A,,Clear,90,2012-11-04 15:55:00
10:35 AM,59.0,37.4,45,30.21,10.0,East,5.8,-,N/A,,Clear,100,2012-11-04 16:35:00
10:55 AM,59.0,37.4,45,30.20,10.0,East,5.8,-,N/A,,Clear,90,2012-11-04 16:55:00
11:35 AM,64.4,39.2,40,30.18,9.0,Calm,Calm,-,N/A,,Clear,0,2012-11-04 17:35:00
11:55 AM,64.4,39.2,40,30.17,10.0,East,6.9,-,N/A,,Clear,90,2012-11-04 17:55:00
12:35 PM,66.2,37.4,35,30.14,10.0,Calm,Calm,-,N/A,,Clear,0,2012-11-04 18:35:00
12:55 PM,66.2,37.4,35,30.13,9.0,ESE,4.6,-,N/A,,Clear,120,2012-11-04 18:55:00
1:15 PM,66.2,33.8,30,30.12,9.0,SE,5.8,-,N/A,,Clear,130,2012-11-04 19:15:00
1:35 PM,66.2,35.6,32,30.11,10.0,SE,4.6,-,N/A,,Clear,140,2012-11-04 19:35:00
1:55 PM,68.0,35.6,30,30.11,10.0,SE,8.1,-,N/A,,Clear,140,2012-11-04 19:55:00
2:15 PM,68.0,33.8,28,30.10,10.0,SSE,8.1,-,N/A,,Clear,160,2012-11-04 20:15:00
2:35 PM,68.0,33.8,28,30.10,10.0,SSE,5.8,-,N/A,,Clear,150,2012-11-04 20:35:00
2:55 PM,68.0,32.0,26,30.09,10.0,ESE,3.5,-,N/A,,Clear,120,2012-11-04 20:55:00
3:15 PM,68.0,32.0,26,30.09,9.0,SE,6.9,-,N/A,,Clear,130,2012-11-04 21:15:00
3:35 PM,68.0,32.0,26,30.08,10.0,ESE,4.6,-,N/A,,Clear,110,2012-11-04 21:35:00
3:55 PM,68.0,33.8,28,30.08,10.0,East,4.6,-,N/A,,Clear,100,2012-11-04 21:55:00
4:15 PM,66.2,33.8,30,30.08,10.0,East,4.6,-,N/A,,Clear,90,2012-11-04 22:15:00
4:35 PM,66.2,35.6,32,30.08,9.0,East,4.6,-,N/A,,Clear,90,2012-11-04 22:35:00
4:55 PM,64.4,35.6,34,30.07,10.0,East,4.6,-,N/A,,Clear,90,2012-11-04 22:55:00
5:15 PM,60.8,37.4,42,30.07,8.0,East,4.6,-,N/A,,Clear,100,2012-11-04 23:15:00
5:35 PM,59.0,37.4,45,30.08,9.0,East,3.5,-,N/A,,Clear,100,2012-11-04 23:35:00
5:55 PM,57.2,37.4,48,30.08,8.0,ESE,5.8,-,N/A,,Clear,120,2012-11-04 23:55:00
6:15 PM,57.2,37.4,48,30.08,10.0,ESE,4.6,-,N/A,,Clear,110,2012-11-05 00:15:00
6:55 PM,50.0,41.0,71,30.08,10.0,Calm,Calm,-,N/A,,Clear,0,2012-11-05 00:55:00
7:15 PM,50.0,41.0,71,30.09,10.0,Calm,Calm,-,N/A,,Clear,0,2012-11-05 01:15:00
7:35 PM,50.0,39.2,66,30.08,8.0,Calm,Calm,-,N/A,,Clear,0,2012-11-05 01:35:00
7:55 PM,48.2,39.2,71,30.09,10.0,Calm,Calm,-,N/A,,Clear,0,2012-11-05 01:55:00
8:15 PM,50.0,39.2,66,30.09,10.0,Calm,Calm,-,N/A,,Clear,0,2012-11-05 02:15:00
8:35 PM,48.2,39.2,71,30.09,10.0,Calm,Calm,-,N/A,,Clear,0,2012-11-05 02:35:00
8:55 PM,48.2,39.2,71,30.10,8.0,Calm,Calm,-,N/A,,Clear,0,2012-11-05 02:55:00
9:15 PM,48.2,39.2,71,30.10,10.0,Calm,Calm,-,N/A,,Clear,0,2012-11-05 03:15:00
9:35 PM,46.4,39.2,76,30.10,10.0,Calm,Calm,-,N/A,,Partly Cloudy,0,2012-11-05 03:35:00
9:55 PM,44.6,39.2,81,30.10,9.0,South,4.6,-,N/A,,Mostly Cloudy,180,2012-11-05 03:55:00
10:15 PM,46.4,39.2,76,30.10,8.0,Calm,Calm,-,N/A,,Partly Cloudy,0,2012-11-05 04:15:00
10:35 PM,46.4,39.2,76,30.09,3.0,Calm,Calm,-,N/A,,Haze,0,2012-11-05 04:35:00
10:55 PM,44.6,39.2,81,30.09,9.0,Calm,Calm,-,N/A,,Clear,0,2012-11-05 04:55:00